Location: Cicognara
(44.9500°N, 10.4667°E)
Time: 07:55:41
(UTC+00:00)

SL-16 R/B - Pass Details

Date: 20 June 2021
Orbit: 842 x 847 km, 71.0° (Epoch: 04 August)

Event Time Altitude Azimuth Distance (km) Brightness Sun altitude
Exits shadow 22:24:20 37° 142° (SE) 1,278 2.7 -20.4°
Maximum altitude 22:25:39 44° 107° (ESE) 1,158 2.7 -20.5°
Drops below altitude 10° 22:30:59 10° 37° (NE) 2,471 5.2 -20.7°
Sets 22:33:32 0° 32° (NNE) 3,410 6.1 -20.8°
